Temp
47 48 49 48 48 49 51 51 51 52 51 52 52 52 51 51 50 42 36 40 36 30 33 34 36 31 32 32 29 27 28 28 27 26 26 23 22 21 20 23 20 20 20 17 18 17 16 27 27 24 29 27 26 26
47 48 49 49 47 47 50 51 51 51 52 51 51 52 52 51 51 47 37 40 39 32 32 36 37 38 39 39 31 29 31 27 31 27 25 23 19 19 20 17 26 22 24 20 23 22 27 31 29 31 32 28 28 28
46 47 48 49 49 47 47 50 50 50 51 51 51 51 51 51 51 47 38 36 37 27 29 29 30 37 39 39 41 30 28 33 31 32 25 23 20 22 14 15 18 23 26 23 23 25 27 30 32 31 32 32 32 31
46 47 47 48 48 48 46 48 49 50 50 51 50 50 50 51 50 46 39 38 35 30 20 26 33 32 39 39 38 38 35 33 32 31 24 21 19 27 19 23 22 26 25 19 20 26 28 30 31 33 32 31 31 30
45 46 46 47 48 48 46 47 48 49 49 50 50 50 50 50 50 47 42 42 41 34 22 22 26 32 35 36 36 35 35 31 26 23 20 18 24 23 20 24 18 26 25 22 19 30 30 31 34 34 31 31 31 29
44 45 46 46 47 47 47 46 48 49 48 49 49 50 50 50 50 42 33 40 43 40 27 18 28 24 30 32 32 32 32 30 26 24 20 24 29 25 12 10 28 29 31 33 30 32 32 34 33 31 30 30 30 28
43 45 45 45 46 46 47 47 48 48 48 48 49 49 49 49 42 35 32 38 45 42 31 20 16 25 29 27 25 28 29 27 27 23 18 25 26 26 14 13 33 31 31 30 33 31 28 29 31 31 30 30 26 23
41 42 44 45 46 46 46 47 48 48 48 47 47 47 45 44 44 37 40 44 44 34 32 25 13 23 30 25 25 27 25 23 23 24 26 21 27 26 16 27 29 31 30 29 30 31 35 30 27 27 23 20 18 21
42 42 41 43 45 44 45 47 47 48 47 47 46 45 40 35 32 33 43 44 40 34 27 25 17 15 28 27 27 26 30 23 29 23 23 27 22 18 25 28 27 29 27 29 25 24 23 24 28 24 20 14 18 21
43 42 42 43 44 44 45 46 46 47 47 47 41 32 28 33 42 42 35 31 31 30 30 23 5 13 26 22 22 21 22 20 20 22 26 23 17 29 29 26 28 30 29 25 18 17 9 13 20 21 19 20 22 16
41 40 40 42 43 41 44 44 46 47 46 34 30 27 32 42 33 28 26 23 26 22 27 19 13 16 22 15 14 26 21 23 16 15 17 13 10 30 31 28 30 30 29 25 29 29 21 21 22 20 16 13 11 8
38 39 42 44 45 44 44 45 46 39 32 34 33 36 34 29 24 22 21 22 18 16 14 20 15 16 16 22 21 23 20 19 7 12 15 5 20 24 22 28 30 26 20 19 15 20 12 13 9 10 8 5 1 0
40 40 40 42 45 43 43 45 41 40 36 33 29 27 26 23 17 17 15 10 14 6 17 13 15 18 18 22 19 18 15 15 16 16 14 14 21 10 6 8 12 5 5 6 3 4 4 1 -0 -1 -2 -3 -4 -7
38 39 39 38 41 44 43 42 41 38 32 25 23 18 16 15 15 17 6 5 9 8 16 10 18 17 13 14 19 11 14 13 9 9 6 5 -2 -2 -1 -1 -5 -0 -4 0 -3 -2 -2 -3 -6 -7 -7 -7 -6 -9
39 39 39 40 41 40 40 40 39 32 24 21 21 14 8 2 -4 -4 -3 -0 5 4 14 13 12 22 15 18 21 16 13 11 7 5 0 -6 -5 -7 -6 -7 -8 -9 -9 -9 -11 -9 -7 -8 -9 -13 -14 -11 -11 -12
37 35 34 38 39 40 39 36 33 30 26 20 16 10 1 4 1 -0 -2 5 12 18 16 18 13 17 16 17 15 13 12 6 5 -6 -7 -7 -10 -11 -13 -13 -13 -15 -15 -13 -10 -7 -8 -9 -10 -15 -17 -17 -14 -11
32 19 36 37 37 34 33 25 25 20 17 16 4 -8 -7 -1 2 -1 1 9 17 19 18 20 16 13 18 14 13 12 10 5 -1 -2 -5 -7 -8 -10 -12 -15 -16 -18 -16 -16 -16 -14 -16 -15 -15 -12 -12 -15 -12 -15
20 23 34 35 26 22 11 15 16 13 5 4 4 -3 -9 -7 -5 -1 5 10 16 18 18 17 19 14 13 11 8 -2 -2 -1 -1 -3 -5 -7 -10 -13 -12 -15 -12 -11 -14 -15 -18 -18 -15 -10 -7 -7 -8 -11 -10 -12
21 25 31 32 24 6 5 5 12 7 1 -1 4 4 2 -3 1 3 4 10 11 12 15 13 14 7 -2 -6 -8 -6 -7 -8 -7 -5 -7 -11 -10 -15 -13 -11 -11 -12 -12 -14 -12 -9 -9 -8 -8 -10 -10 -9 -9 -12
31 30 29 27 23 4 -2 -1 2 8 2 1 1 3 3 1 3 3 4 6 6 3 -8 -9 -14 -14 -12 -10 -9 -10 -9 -7 -9 -10 -9 -7 -6 -7 -9 -8 -10 -11 -10 -12 -11 -10 -10 -9 -10 -10 -12 -12 -13 -17
21 21 23 13 10 5 -3 -2 -5 -3 1 0 0 2 1 2 -2 -3 -3 0 -6 -13 -13 -14 -14 -13 -11 -11 -8 -11 -9 -9 -11 -11 -12 -7 -6 -6 -7 -8 -8 -8 -8 -9 -9 -9 -7 -8 -10 -14 -14 -19 -23 -24
14 21 6 15 8 5 2 0 -5 -3 -3 -7 -1 -1 -6 -8 -9 -8 -3 -11 -13 -13 -14 -14 -14 -14 -13 -12 -11 -11 -11 -11 -9 -7 -6 -6 -7 -6 -7 -8 -6 -8 -8 -9 -10 -13 -14 -13 -15 -20 -23 -22 -21 -22
14 14 7 5 3 1 -4 1 -4 -3 -5 -6 -4 -3 -7 -7 -6 -1 -12 -13 -15 -12 -15 -16 -14 -13 -14 -12 -11 -11 -12 -13 -16 -13 -11 -10 -9 -8 -9 -10 -10 -12 -11 -12 -14 -15 -19 -16 -20 -21 -23 -22 -23 -22
6 -6 -7 -8 -6 -9 -6 -6 -2 -3 -4 -8 -7 -10 -13 -12 -6 -11 -19 -19 -14 -11 -14 -15 -16 -14 -12 -14 -15 -14 -14 -15 -12 -12 -12 -8 -9 -11 -11 -12 -12 -14 -16 -16 -17 -22 -23 -23 -17 -18 -19 -22 -25 -23
-7 -19 -14 -17 -12 -14 -15 -13 -12 -9 -12 -12 -12 -12 -13 -14 -14 -18 -18 -18 -16 -16 -15 -16 -16 -15 -18 -17 -14 -14 -15 -14 -11 -11 -11 -11 -10 -9 -9 -11 -12 -16 -17 -19 -19 -19 -19 -21 -19 -21 -20 -23 -22 -21
-25 -23 -22 -24 -21 -19 -17 -16 -18 -19 -15 -16 -18 -14 -15 -13 -19 -23 -21 -18 -18 -17 -16 -18 -20 -18 -15 -14 -15 -13 -12 -13 -13 -10 -11 -12 -10 -10 -12 -12 -12 -10 -16 -20 -20 -21 -22 -17 -18 -18 -18 -16 -11 -12
-24 -25 -21 -16 -19 -18 -16 -15 -15 -18 -23 -23 -25 -16 -13 -20 -23 -21 -15 -13 -15 -14 -12 -12 -16 -16 -16 -15 -12 -10 -10 -14 -15 -14 -15 -15 -15 -15 -13 -14 -16 -13 -16 -20 -22 -21 -19 -18 -16 -14 -13 -12 -13 -14
-24 -25 -25 -22 -22 -21 -22 -23 -25 -27 -25 -25 -21 -23 -24 -24 -26 -19 -14 -10 -11 -11 -10 -10 -12 -14 -14 -11 -8 -8 -8 -7 -11 -11 -11 -10 -11 -11 -10 -10 -8 -1 -8 -10 -9 -9 -11 -12 -12 -12 -13 -14 -14 -10
-24 -24 -24 -22 -23 -25 -30 -28 -28 -26 -26 -27 -21 -21 -21 -16 -16 -17 -12 -10 -9 -8 -11 -11 -10 -7 -8 -8 -7 -8 -8 -10 -12 -16 -16 -16 -14 -12 -7 -8 -8 -8 -8 -9 -5 -2 -1 -2 -5 -8 -12 -13 -14 -16
-26 -28 -25 -25 -27 -29 -28 -30 -29 -27 -26 -24 -22 -14 -14 -13 -11 -7 -9 -9 -11 -12 -11 -11 -11 -12 -13 -13 -13 -12 -12 -11 -11 -14 -19 -18 -15 -10 -9 -9 -9 -8 -9 -15 -11 -12 -8 -13 -14 -20 -21 -21 -23 -23
-28 -26 -25 -25 -26 -27 -28 -28 -26 -24 -21 -18 -17 -17 -20 -17 -13 -9 -10 -10 -11 -11 -12 -14 -14 -13 -14 -15 -16 -16 -16 -13 -11 -13 -12 -12 -11 -11 -10 -9 -7 -13 -21 -21 -21 -24 -21 -23 -25 -24 -23 -23 -23 -21
-24 -30 -28 -28 -27 -26 -28 -26 -28 -25 -22 -20 -21 -19 -19 -18 -20 -17 -11 -11 -14 -15 -13 -15 -16 -16 -13 -14 -20 -21 -13 -15 -15 -16 -16 -14 -14 -13 -11 -10 -13 -16 -18 -19 -20 -23 -23 -25 -24 -23 -23 -25 -25 -25
-24 -22 -22 -21 -23 -23 -24 -25 -22 -22 -21 -21 -20 -20 -20 -17 -20 -15 -11 -10 -14 -17 -18 -19 -17 -15 -18 -23 -21 -24 -21 -25 -22 -12 -11 -9 -9 -9 -11 -12 -17 -21 -22 -22 -21 -21 -23 -24 -24 -25 -25 -26 -26 -25
MSLP
1004.35 1004.08 1004.04 1004.09 1004.04 1003.84 1003.69 1003.92 1004.02 1004.14 1004.42 1004.71 1005.11 1005.49 1005.79 1006.22 1006.80 1007.30 1008.39 1008.68 1009.08 1009.65 1009.59 1009.39 1009.53 1009.74 1009.71 1009.76 1010.44 1012.16 1013.37 1013.68 1013.57 1013.64 1013.55 1014.25 1014.87 1015.58 1016.04 1016.10 1016.56 1016.90 1017.73 1018.12 1018.25 1018.12 1017.31 1016.37 1017.32 1017.27 1016.60 1016.98 1017.34 1018.02
1003.29 1003.17 1003.09 1003.09 1003.40 1003.32 1003.02 1003.04 1003.18 1003.34 1003.60 1004.04 1004.41 1004.79 1005.17 1005.64 1006.25 1006.98 1008.15 1008.67 1009.00 1009.66 1010.13 1009.93 1009.65 1009.40 1009.20 1009.06 1009.93 1011.38 1011.52 1011.89 1012.19 1012.95 1013.88 1014.55 1015.85 1016.50 1016.15 1016.72 1016.73 1016.44 1015.59 1016.19 1016.59 1015.77 1015.46 1015.64 1015.63 1015.57 1015.74 1016.58 1017.27 1017.63
1002.46 1002.20 1002.06 1002.10 1002.27 1002.65 1002.53 1002.30 1002.46 1002.75 1003.10 1003.48 1003.80 1004.26 1004.76 1005.17 1005.61 1006.64 1007.74 1008.82 1009.20 1009.92 1010.47 1010.62 1009.71 1009.09 1009.17 1008.92 1008.59 1010.07 1011.74 1011.60 1011.86 1011.81 1013.34 1014.67 1015.42 1015.95 1016.60 1016.22 1016.34 1015.70 1015.55 1015.51 1015.84 1015.39 1015.35 1015.51 1015.33 1015.39 1015.69 1016.08 1016.46 1017.07
1001.15 1001.06 1001.03 1001.16 1001.29 1001.56 1001.98 1001.64 1001.79 1001.97 1002.22 1002.57 1003.10 1003.63 1004.19 1004.49 1005.01 1006.06 1006.96 1007.78 1008.64 1009.81 1010.53 1009.79 1009.57 1009.22 1008.55 1008.57 1008.71 1009.29 1009.99 1010.83 1011.94 1012.64 1013.15 1014.04 1014.95 1015.01 1015.81 1015.33 1015.03 1014.27 1014.85 1015.16 1015.34 1014.98 1015.00 1014.94 1014.98 1014.86 1015.29 1015.82 1016.41 1016.83
999.81 999.83 999.97 1000.04 1000.18 1000.52 1001.00 1001.06 1001.16 1001.41 1001.67 1002.01 1002.59 1003.06 1003.57 1004.01 1004.56 1005.44 1006.18 1006.89 1007.32 1008.21 1009.38 1009.65 1009.58 1009.04 1008.76 1008.51 1009.01 1009.63 1010.26 1011.04 1012.03 1013.01 1013.61 1014.21 1014.48 1014.96 1015.51 1015.29 1014.30 1013.48 1013.37 1013.97 1013.88 1013.64 1013.49 1013.77 1013.89 1014.33 1015.22 1015.61 1015.83 1016.39
998.58 998.52 998.65 999.02 999.16 999.52 999.91 1000.27 1000.34 1000.69 1001.07 1001.44 1001.93 1002.43 1002.90 1003.40 1004.07 1005.14 1005.65 1006.21 1006.52 1007.20 1008.85 1009.95 1009.25 1009.25 1009.16 1009.25 1009.65 1010.06 1010.36 1011.09 1011.79 1012.44 1013.45 1013.45 1013.53 1014.03 1015.28 1015.04 1011.71 1012.15 1011.97 1012.11 1012.66 1012.82 1013.00 1012.90 1013.30 1013.96 1014.65 1014.82 1015.33 1015.95
997.56 997.08 997.48 997.96 998.16 998.65 998.88 999.27 999.60 1000.05 1000.59 1000.87 1001.40 1001.93 1002.48 1002.95 1003.64 1004.41 1004.77 1004.95 1005.51 1006.91 1008.41 1009.81 1009.85 1009.90 1009.68 1009.86 1010.32 1010.75 1010.87 1011.26 1011.76 1012.77 1013.00 1013.10 1013.35 1013.63 1014.47 1013.59 1010.41 1011.29 1011.68 1012.12 1012.08 1012.69 1012.83 1012.97 1013.12 1013.30 1014.20 1014.51 1015.06 1015.44
997.42 997.13 996.93 996.97 997.33 997.65 997.94 998.29 998.82 999.46 1000.09 1000.57 1000.98 1001.20 1002.16 1002.93 1003.48 1004.20 1004.45 1004.30 1005.34 1006.48 1007.61 1008.60 1009.85 1010.46 1010.00 1010.39 1010.85 1010.91 1011.35 1011.48 1011.83 1012.19 1012.61 1012.97 1013.55 1013.66 1013.59 1010.72 1011.06 1011.16 1011.53 1011.71 1011.50 1011.71 1011.67 1012.30 1012.86 1013.49 1014.06 1014.77 1015.43 1015.91
997.09 996.73 996.47 996.32 996.46 996.91 997.13 997.41 998.04 998.77 999.59 1000.12 1000.93 1001.54 1002.38 1003.41 1003.46 1003.55 1004.14 1004.61 1005.33 1006.35 1006.88 1007.87 1009.47 1010.35 1010.20 1010.18 1010.45 1010.84 1010.84 1011.69 1011.70 1011.89 1012.23 1012.61 1012.93 1012.35 1010.42 1010.39 1010.68 1010.62 1010.74 1010.60 1010.92 1011.66 1012.24 1012.97 1012.99 1013.51 1014.33 1014.96 1015.55 1015.77
996.44 996.29 995.97 995.64 995.60 996.04 996.24 996.73 997.56 998.22 999.08 1000.02 1000.89 1001.85 1002.60 1002.96 1003.18 1003.81 1004.64 1005.16 1005.63 1006.07 1006.59 1008.10 1009.87 1010.38 1009.97 1010.07 1010.35 1010.85 1010.94 1011.32 1011.49 1011.59 1011.84 1011.89 1011.63 1009.47 1009.45 1009.94 1009.89 1009.86 1010.05 1010.51 1011.81 1012.16 1012.75 1013.09 1013.34 1013.70 1014.30 1014.55 1015.16 1015.77
995.61 995.03 994.77 994.51 994.96 995.38 995.78 996.31 996.94 997.81 999.10 999.56 1000.30 1001.81 1002.69 1002.66 1003.37 1004.61 1005.23 1005.78 1006.04 1006.57 1007.12 1008.13 1008.99 1009.60 1009.82 1009.69 1010.21 1010.26 1010.58 1010.90 1011.45 1011.66 1011.91 1011.98 1011.06 1007.77 1009.30 1009.50 1009.17 1009.42 1009.72 1010.15 1010.74 1011.13 1011.84 1012.29 1013.00 1013.72 1014.34 1014.98 1015.64 1016.54
993.58 992.60 992.82 993.56 994.18 994.82 995.35 995.90 996.58 998.07 999.07 999.60 1000.38 1001.66 1002.33 1003.31 1004.37 1005.52 1006.09 1006.66 1006.99 1007.54 1008.06 1008.32 1008.70 1008.84 1009.66 1009.42 1009.61 1010.21 1010.55 1011.13 1011.46 1011.97 1012.58 1012.74 1009.84 1009.33 1009.78 1009.88 1009.49 1010.08 1010.72 1011.18 1011.82 1012.13 1012.69 1013.34 1013.89 1014.43 1015.18 1016.21 1017.22 1018.04
993.59 993.34 993.63 993.68 994.03 994.74 995.04 995.70 996.78 998.41 999.51 999.57 1000.89 1002.07 1002.68 1003.94 1005.11 1006.11 1007.02 1008.21 1008.23 1008.08 1008.12 1008.61 1008.99 1008.83 1009.35 1009.09 1009.62 1010.05 1010.43 1011.26 1011.91 1012.81 1013.19 1012.19 1010.72 1012.20 1012.95 1012.98 1012.45 1012.52 1012.54 1012.72 1013.32 1013.76 1014.33 1015.14 1015.48 1016.04 1017.12 1017.93 1018.66 1019.68
995.87 995.22 994.82 994.54 993.59 994.57 994.74 995.93 997.13 998.43 999.36 1000.45 1001.34 1002.85 1003.74 1005.34 1006.21 1006.83 1007.75 1007.87 1007.63 1007.63 1007.73 1008.28 1008.65 1008.58 1008.69 1008.99 1009.34 1010.14 1010.42 1011.60 1013.12 1014.18 1014.20 1013.96 1015.07 1015.55 1015.75 1015.81 1015.51 1015.26 1015.00 1015.15 1015.58 1015.89 1016.30 1016.78 1017.62 1018.06 1018.62 1019.31 1019.99 1021.00
997.15 996.61 996.17 995.76 995.47 995.43 995.86 996.78 997.84 998.56 1000.17 1001.57 1002.50 1004.35 1005.77 1006.74 1007.71 1008.54 1008.27 1008.47 1008.17 1008.08 1007.63 1008.12 1008.37 1008.17 1008.58 1008.93 1009.02 1009.85 1011.18 1012.42 1013.59 1014.82 1016.04 1017.23 1017.96 1018.17 1017.81 1017.77 1017.86 1017.60 1017.39 1017.22 1017.67 1018.11 1018.61 1018.99 1019.51 1020.37 1020.83 1020.93 1021.41 1022.33
998.16 997.94 998.43 998.01 997.64 997.27 997.46 997.77 998.49 999.57 1001.02 1002.53 1004.24 1006.25 1007.77 1008.38 1009.59 1009.73 1009.43 1008.84 1008.21 1007.81 1007.54 1007.41 1008.00 1008.24 1008.56 1008.87 1009.67 1010.51 1012.13 1013.68 1015.43 1017.01 1018.41 1019.36 1019.86 1020.17 1019.97 1019.70 1019.70 1019.67 1019.55 1019.03 1018.89 1019.17 1019.72 1020.38 1021.21 1022.09 1022.66 1022.89 1022.83 1023.03
999.58 1000.57 1000.06 999.53 999.30 999.19 999.16 999.56 1000.60 1002.08 1003.50 1005.00 1007.32 1008.38 1009.42 1009.66 1009.98 1010.16 1009.48 1008.94 1008.14 1007.84 1007.89 1007.95 1008.20 1008.53 1009.21 1010.31 1011.62 1012.68 1014.41 1016.13 1017.46 1018.66 1019.90 1020.82 1021.08 1021.39 1021.11 1021.03 1020.96 1020.85 1020.76 1020.69 1020.34 1020.60 1020.81 1021.30 1021.85 1022.50 1023.23 1023.87 1023.97 1024.12
1001.74 1001.73 1001.01 1000.46 1000.34 1000.53 1001.77 1002.61 1003.54 1004.80 1006.68 1008.12 1008.97 1010.23 1010.65 1011.05 1011.14 1010.93 1010.38 1009.74 1008.98 1008.67 1008.59 1008.98 1009.45 1010.80 1012.25 1013.71 1015.19 1016.86 1017.87 1018.75 1019.19 1019.91 1020.60 1021.22 1021.55 1021.70 1021.71 1022.00 1021.73 1021.65 1021.70 1021.94 1021.78 1021.91 1021.77 1021.87 1022.36 1022.97 1023.24 1023.50 1023.95 1024.62
1002.04 1002.08 1002.00 1001.61 1001.73 1002.88 1004.93 1006.29 1006.41 1007.67 1009.57 1010.15 1010.65 1011.08 1011.58 1012.03 1012.23 1012.00 1011.56 1010.74 1010.16 1009.87 1010.03 1011.04 1012.89 1015.27 1017.11 1018.39 1019.30 1019.82 1020.44 1020.84 1021.17 1021.29 1021.63 1022.05 1022.20 1022.20 1022.01 1022.13 1022.38 1022.20 1022.24 1022.38 1022.38 1022.59 1022.70 1022.60 1022.86 1023.47 1023.92 1024.20 1024.55 1025.00
1002.52 1002.74 1002.86 1003.01 1002.69 1004.85 1007.44 1008.72 1008.56 1008.93 1010.66 1011.44 1011.73 1012.13 1012.72 1013.11 1013.25 1013.11 1012.78 1012.58 1012.59 1013.43 1015.10 1017.43 1019.76 1021.17 1021.68 1022.12 1022.52 1022.68 1022.67 1022.66 1022.62 1022.23 1022.06 1022.18 1022.32 1022.28 1022.28 1022.47 1022.74 1022.85 1023.01 1023.01 1022.98 1023.05 1023.10 1023.44 1023.69 1024.10 1024.69 1024.92 1025.12 1025.65
1003.61 1003.99 1003.95 1003.98 1005.69 1007.14 1009.51 1010.55 1011.09 1011.61 1011.91 1012.42 1013.05 1013.29 1013.89 1014.10 1014.63 1014.98 1015.48 1015.79 1016.90 1020.24 1021.80 1023.00 1023.42 1023.89 1024.22 1024.07 1023.95 1024.02 1023.78 1023.69 1023.48 1023.25 1022.84 1022.37 1022.45 1022.56 1022.64 1022.83 1022.99 1022.93 1023.24 1023.44 1023.66 1023.82 1023.81 1024.11 1024.43 1024.87 1025.14 1025.40 1025.54 1025.60
1005.06 1005.00 1005.76 1006.00 1007.49 1009.21 1010.80 1011.89 1012.18 1012.61 1013.04 1013.88 1014.02 1014.60 1015.36 1016.12 1016.94 1017.71 1018.08 1019.31 1022.71 1024.71 1025.20 1025.34 1025.28 1025.17 1025.07 1024.79 1024.68 1024.56 1024.44 1024.11 1023.61 1023.16 1022.95 1022.78 1022.87 1022.91 1023.04 1023.18 1023.29 1023.50 1023.59 1023.73 1024.09 1024.43 1024.68 1024.87 1025.19 1025.42 1025.55 1025.57 1025.55 1025.43
1006.09 1006.36 1007.89 1008.81 1009.59 1011.01 1013.21 1012.76 1012.98 1013.61 1014.18 1015.12 1015.42 1016.07 1017.28 1017.87 1018.55 1018.94 1021.31 1023.91 1025.78 1026.68 1026.86 1026.77 1026.32 1025.88 1025.65 1025.30 1025.15 1024.99 1024.84 1024.54 1024.22 1023.86 1023.61 1023.40 1023.26 1023.32 1023.48 1023.61 1023.76 1024.02 1024.22 1024.34 1024.55 1024.85 1025.25 1025.26 1025.37 1025.55 1025.59 1025.58 1025.47 1025.24
1008.29 1010.75 1012.08 1012.80 1013.40 1014.41 1014.31 1014.47 1014.56 1015.04 1015.59 1016.32 1017.10 1018.44 1019.35 1019.82 1019.96 1021.44 1024.35 1026.30 1027.30 1027.40 1027.35 1027.24 1026.86 1026.08 1025.72 1025.62 1025.69 1025.57 1025.34 1024.97 1024.63 1024.43 1024.26 1023.97 1023.97 1024.07 1024.06 1024.17 1024.29 1024.44 1024.65 1024.77 1024.94 1025.20 1025.32 1025.33 1025.41 1025.44 1025.37 1025.35 1025.31 1025.34
1011.17 1017.15 1017.31 1017.39 1017.28 1016.90 1016.95 1017.09 1017.23 1017.24 1018.41 1018.75 1019.34 1020.27 1020.78 1021.02 1022.18 1024.50 1026.43 1027.82 1028.01 1028.12 1028.16 1027.99 1027.60 1027.24 1026.97 1026.54 1026.18 1025.94 1025.78 1025.64 1025.34 1025.16 1025.10 1024.80 1024.52 1024.45 1024.43 1024.42 1024.54 1024.77 1025.07 1025.18 1025.50 1025.53 1025.45 1025.28 1025.17 1025.14 1025.11 1025.17 1025.29 1024.92
1017.91 1021.63 1021.68 1021.68 1021.29 1020.46 1020.43 1020.29 1020.55 1020.92 1020.78 1021.35 1022.11 1022.01 1021.83 1022.59 1024.75 1027.35 1028.60 1029.05 1029.01 1028.85 1028.77 1028.73 1028.66 1028.13 1027.59 1027.25 1026.83 1026.28 1026.07 1025.93 1025.81 1025.63 1025.74 1025.58 1025.39 1025.27 1025.24 1025.11 1025.08 1025.14 1025.24 1025.41 1025.59 1025.69 1025.54 1025.07 1024.95 1024.85 1024.72 1024.23 1023.95 1023.79
1022.75 1024.35 1024.25 1024.11 1023.85 1023.22 1023.02 1023.07 1023.14 1023.48 1024.12 1024.87 1024.81 1023.77 1023.65 1025.49 1027.90 1029.23 1029.32 1029.41 1029.33 1029.01 1028.75 1028.61 1028.69 1028.49 1028.14 1027.51 1026.81 1026.36 1026.10 1026.10 1026.12 1026.19 1026.19 1026.09 1025.97 1025.91 1025.83 1025.78 1025.60 1025.36 1025.06 1025.09 1025.36 1025.29 1025.04 1024.73 1024.44 1024.12 1023.87 1023.55 1023.41 1023.28
1026.02 1026.64 1026.59 1026.12 1025.66 1025.78 1025.85 1026.29 1027.01 1027.93 1028.03 1027.86 1026.97 1026.85 1027.43 1028.66 1030.09 1030.09 1029.71 1029.47 1029.28 1028.98 1028.61 1028.40 1028.49 1028.37 1028.11 1027.71 1027.27 1026.73 1026.23 1026.02 1026.09 1026.16 1026.23 1026.23 1026.08 1025.93 1025.77 1025.65 1025.48 1025.12 1025.07 1024.92 1024.72 1024.39 1024.22 1024.01 1023.69 1023.47 1023.41 1023.32 1023.06 1022.80
1027.84 1028.13 1027.86 1027.50 1027.43 1028.26 1029.75 1030.29 1030.60 1030.63 1030.66 1029.81 1028.69 1028.80 1029.49 1030.16 1030.47 1030.37 1030.04 1029.70 1029.33 1029.07 1028.89 1028.81 1028.70 1028.41 1028.28 1027.98 1027.76 1027.59 1027.39 1027.12 1026.91 1026.92 1026.97 1026.77 1026.50 1026.14 1025.93 1025.73 1025.47 1025.23 1025.02 1024.82 1024.48 1024.04 1023.47 1023.09 1022.88 1022.88 1023.03 1023.06 1022.91 1022.67
1029.71 1029.50 1028.95 1029.24 1030.11 1031.55 1032.33 1032.53 1032.12 1031.77 1031.25 1030.60 1030.03 1029.81 1030.17 1030.62 1030.85 1030.54 1030.31 1030.05 1029.86 1029.87 1029.91 1029.82 1029.68 1029.35 1029.25 1028.98 1028.70 1028.39 1028.16 1028.02 1027.96 1028.10 1027.89 1027.49 1027.08 1026.53 1026.13 1025.75 1025.43 1025.20 1025.01 1024.79 1024.61 1024.30 1023.87 1023.60 1023.44 1023.26 1023.38 1023.13 1023.08 1022.90
1030.76 1030.25 1030.22 1030.99 1032.27 1032.91 1033.08 1032.92 1032.33 1031.77 1031.11 1030.78 1030.52 1030.56 1030.91 1030.99 1030.95 1031.04 1030.94 1030.85 1030.74 1030.60 1030.43 1030.34 1030.21 1030.09 1029.93 1029.72 1029.50 1029.08 1028.69 1028.53 1028.42 1028.33 1028.02 1027.52 1026.96 1026.56 1026.08 1025.64 1025.17 1025.07 1024.90 1024.80 1024.77 1024.83 1024.47 1024.10 1023.97 1023.77 1023.59 1023.35 1023.04 1022.81
1031.62 1032.06 1032.07 1032.65 1033.34 1033.30 1033.22 1032.97 1032.45 1031.89 1031.58 1031.26 1031.26 1031.08 1031.17 1031.14 1031.44 1031.61 1032.01 1031.45 1031.26 1031.26 1031.32 1031.33 1031.13 1030.79 1030.52 1030.27 1030.02 1029.94 1029.70 1029.57 1029.07 1028.53 1027.77 1027.27 1026.72 1026.34 1025.99 1025.44 1025.20 1025.18 1025.07 1024.88 1024.73 1024.66 1024.49 1024.18 1023.92 1023.66 1023.38 1023.05 1022.69 1022.35
1033.12 1033.13 1033.33 1033.84 1034.13 1033.96 1033.60 1033.19 1032.49 1032.20 1031.75 1031.62 1031.57 1031.48 1031.45 1031.46 1031.77 1031.98 1032.13 1032.01 1032.23 1032.34 1032.53 1032.33 1031.82 1031.20 1030.73 1030.28 1030.18 1030.14 1030.23 1029.80 1029.23 1028.20 1027.60 1026.89 1026.33 1025.83 1025.47 1025.08 1025.29 1025.17 1024.96 1024.84 1024.62 1024.35 1024.12 1023.84 1023.57 1023.24 1022.91 1022.56 1022.17 1021.76
Wind_Speed
25 25 24 21 24 25 25 22 23 19 18 18 17 16 16 18 19 5 2 4 4 1 2 5 5 3 1 3 5 5 4 1 2 3 3 3 2 6 4 3 7 9 9 5 2 3 11 8 4 9 6 2 6 6
25 24 25 23 22 25 26 23 24 21 19 18 18 18 18 18 20 10 3 2 2 3 2 1 3 3 4 4 6 4 1 5 5 3 2 4 3 2 3 4 1 4 7 9 12 8 0 12 4 6 5 6 5 6
25 27 26 26 23 21 26 24 23 23 21 19 21 20 19 21 20 15 4 4 3 3 2 1 5 3 3 4 4 7 1 2 4 2 4 3 3 4 5 6 3 4 3 3 4 4 6 9 6 2 7 7 5 6
27 28 27 26 27 22 24 25 22 21 21 20 18 19 20 19 20 13 5 4 4 3 3 5 3 4 3 6 4 2 5 6 5 1 3 4 3 3 3 2 3 5 8 6 2 0 2 6 7 7 8 6 5 6
26 28 27 27 26 25 22 27 23 22 19 20 20 21 19 18 18 11 4 6 7 4 5 3 2 3 1 7 8 6 9 6 2 3 3 2 2 4 1 2 5 7 8 6 5 8 7 6 10 10 9 9 10 8
24 29 27 26 26 26 22 25 23 20 19 19 19 21 21 19 15 5 1 6 9 5 4 0 2 5 3 5 7 7 4 3 3 4 3 2 1 4 4 4 8 5 8 7 5 6 7 8 7 7 10 10 9 7
19 20 25 24 25 25 24 24 22 19 17 15 19 19 19 16 6 5 5 4 18 6 4 0 4 4 3 4 3 3 3 2 3 2 2 4 3 4 3 6 5 5 8 5 8 6 4 5 8 7 8 10 6 5
12 15 21 23 24 22 23 24 22 20 19 16 14 19 12 11 9 6 2 6 10 4 3 4 2 1 1 3 4 2 3 2 2 3 2 3 2 2 5 13 2 8 7 8 11 11 14 2 4 7 4 5 5 8
15 14 13 21 21 19 26 23 22 23 22 16 15 17 5 3 2 2 11 11 4 2 5 3 7 5 3 2 3 1 2 2 2 4 4 5 4 7 14 12 8 11 10 12 2 8 7 9 13 8 7 3 7 9
19 18 20 20 19 16 21 20 23 22 23 24 9 3 2 3 12 14 4 2 2 2 2 3 2 3 2 2 1 4 2 3 4 4 5 5 4 20 6 8 10 11 11 6 4 5 0 6 11 9 11 7 11 5
23 25 25 21 17 19 22 25 23 23 23 4 3 3 1 11 4 2 3 2 2 2 3 3 5 5 3 4 4 1 3 3 4 5 6 3 6 21 10 14 13 11 11 12 13 12 7 8 8 9 7 5 5 6
34 18 13 19 19 16 13 18 23 9 3 6 9 6 3 3 3 5 3 2 2 6 2 5 4 4 2 2 4 4 4 3 6 3 4 3 12 3 7 12 13 6 2 6 5 8 3 4 3 4 5 6 5 7
24 24 18 4 21 16 19 26 22 27 14 2 5 4 5 3 4 7 7 2 3 3 5 3 2 4 2 1 3 3 5 5 4 4 5 9 3 6 9 9 9 8 5 5 4 6 7 6 5 4 8 6 8 8
28 27 25 24 8 23 25 31 28 13 5 3 3 6 5 4 3 4 6 5 4 3 7 4 4 4 3 3 4 4 4 5 3 4 9 3 6 10 9 6 5 7 4 5 5 6 7 8 7 7 7 6 8 7
24 28 30 25 22 21 19 24 14 4 4 3 3 5 3 2 3 1 2 2 2 2 4 4 4 3 1 3 4 3 5 5 7 7 2 3 7 8 10 8 8 6 4 5 4 5 6 6 8 8 6 6 8 6
12 15 17 22 23 20 16 13 6 3 3 4 5 4 2 5 3 2 0 2 2 3 1 3 4 3 4 3 4 6 6 6 3 1 2 5 6 6 5 6 5 4 3 4 5 6 7 7 7 6 4 6 5 5
17 4 17 16 14 14 20 5 4 6 4 4 3 3 2 3 3 2 1 0 2 2 3 2 3 4 3 2 3 3 2 1 2 2 1 2 5 7 6 4 4 4 5 5 5 6 5 6 7 5 7 3 4 4
4 4 16 15 9 7 5 7 5 5 7 4 2 3 2 1 1 2 2 4 1 2 2 2 3 2 2 2 2 2 3 3 1 2 4 5 4 3 3 4 4 5 5 5 5 2 3 5 5 5 6 4 5 3
4 7 16 12 8 6 5 6 4 5 3 1 2 2 3 1 1 1 2 3 1 0 3 3 3 2 3 3 3 2 3 3 4 4 2 3 3 3 3 4 4 5 4 3 3 4 4 5 5 3 3 1 3 1
16 17 14 16 10 5 6 4 3 4 3 2 3 3 3 2 2 3 7 7 5 5 9 8 4 2 3 3 2 3 4 4 4 3 1 1 1 2 4 3 3 3 3 3 4 4 3 4 3 3 1 1 2 1
8 6 12 7 5 7 5 3 5 2 2 4 1 2 3 3 4 5 5 6 7 7 4 3 1 2 3 4 1 2 4 3 2 2 2 3 1 1 2 2 1 2 2 2 2 3 3 3 2 1 1 0 2 3
2 10 4 6 5 4 5 4 3 1 4 1 2 3 4 3 3 4 2 9 6 4 3 3 3 3 4 3 4 3 4 6 5 3 2 0 0 1 1 1 1 1 2 2 2 1 1 1 1 0 1 1 2 2
7 6 5 7 5 6 2 2 4 4 4 2 1 4 4 3 3 1 7 4 3 2 2 2 6 6 4 4 3 3 3 4 3 3 3 2 2 2 2 3 2 2 1 1 1 1 0 1 1 1 1 1 1 2
12 9 8 6 7 3 2 4 3 3 3 4 4 4 3 2 3 6 5 3 2 3 5 7 5 4 2 3 3 3 4 3 2 2 4 2 2 2 2 1 1 1 1 1 1 0 1 1 2 1 0 1 2 1
10 12 8 9 5 6 7 5 5 5 4 4 4 3 3 2 5 5 4 3 4 3 5 6 5 4 2 3 2 2 2 3 3 3 3 3 1 0 1 2 2 1 1 2 2 2 2 2 2 2 2 2 4 5
12 6 7 6 5 6 5 4 5 4 3 4 4 2 2 4 6 5 2 3 3 2 5 4 3 4 3 3 3 4 4 3 3 2 3 3 4 3 3 3 3 3 2 0 1 2 3 3 3 4 4 5 5 4
9 6 4 2 3 3 3 3 3 5 6 6 4 5 4 7 5 2 2 1 3 3 4 3 2 2 3 4 4 3 3 1 1 1 1 1 2 1 2 2 3 3 2 2 3 4 4 4 4 4 4 3 3 4
4 5 6 7 4 5 4 5 6 6 4 4 1 7 5 4 1 3 2 5 5 5 4 1 1 1 2 3 5 6 5 4 2 2 2 2 1 0 2 2 2 8 3 3 3 4 4 4 5 5 5 5 5 3
5 5 3 5 4 7 7 6 4 3 3 2 3 4 4 3 1 2 3 4 3 4 6 6 7 5 5 4 6 6 6 7 8 7 7 3 4 3 6 5 5 4 4 4 10 10 10 7 5 4 4 4 4 3
5 3 3 5 7 6 3 1 3 3 2 1 1 9 7 4 6 5 5 6 7 7 5 5 5 6 7 7 7 7 3 3 4 5 3 4 6 7 7 6 6 5 4 3 6 5 8 5 5 5 4 4 3 4
3 3 4 5 5 2 2 3 3 2 2 4 4 5 3 3 2 8 8 5 4 3 5 6 6 6 7 8 8 9 7 2 5 5 5 6 5 6 6 7 7 3 3 3 3 3 3 3 3 5 6 8 8 8
4 5 3 4 1 2 1 3 2 3 3 3 3 1 1 2 3 2 6 6 5 6 7 6 7 8 8 5 2 3 5 6 7 7 8 6 5 6 6 6 5 2 3 3 4 4 5 6 6 7 8 9 8 8
2 4 4 3 2 2 4 3 0 2 2 2 2 1 1 2 2 2 1 5 5 3 4 4 6 7 7 4 6 3 4 3 8 12 13 14 14 12 8 5 2 3 4 4 6 6 8 9 8 9 8 9 9 10
Wind_Direction
268 270 264 275 281 265 257 255 248 235 236 233 223 219 209 196 175 132 157 172 122 93 243 174 172 161 123 171 139 138 118 210 107 200 159 175 111 198 126 139 172 155 164 194 120 200 262 158 65 170 197 32 159 171
265 266 267 261 269 278 265 256 245 242 231 231 224 224 220 211 198 161 107 143 113 119 230 284 268 264 199 168 126 176 354 160 149 125 140 101 126 181 157 208 163 218 189 180 191 201 231 187 185 187 163 150 196 178
266 270 265 262 258 268 271 255 243 235 232 227 222 218 222 213 200 168 130 146 76 87 306 273 220 226 197 218 162 129 248 198 163 158 141 125 174 128 167 232 128 258 160 211 104 187 196 210 233 234 189 208 182 212
262 262 258 259 258 256 264 257 244 241 233 222 218 218 221 212 196 159 150 162 104 120 148 269 326 224 216 164 144 101 135 94 101 122 118 134 155 173 205 165 173 190 136 155 270 145 83 276 232 231 213 218 212 202
269 257 251 252 253 251 254 256 235 242 239 219 215 210 214 213 204 176 144 185 163 145 185 252 266 243 209 151 141 121 131 118 130 90 96 160 126 119 329 62 256 175 173 166 206 195 165 199 218 224 216 223 224 221
273 253 246 247 246 242 244 247 235 232 236 221 216 215 213 209 189 153 181 186 181 126 102 1 302 12 61 122 123 131 122 97 99 137 170 165 190 110 126 203 238 178 163 167 207 190 193 216 220 181 200 218 229 214
301 253 240 244 236 239 239 238 229 220 225 207 213 211 209 206 165 183 188 156 172 127 149 6 305 336 37 83 55 80 36 93 117 139 139 132 183 132 110 221 234 170 187 191 222 132 239 174 232 201 195 217 201 212
318 289 247 242 233 235 237 227 215 207 199 190 201 185 131 46 162 170 171 166 151 119 169 169 242 146 161 144 120 146 114 50 349 153 95 119 101 99 239 245 243 219 191 219 228 197 225 108 215 227 178 147 185 225
315 304 289 237 236 237 228 214 207 206 194 173 161 140 108 119 152 165 118 137 105 143 176 145 145 198 188 128 118 89 124 140 155 190 183 145 163 214 227 218 198 209 194 225 236 200 209 211 237 226 185 190 211 236
303 303 291 274 242 238 223 211 201 192 185 178 157 137 128 169 145 126 139 140 151 157 131 104 44 157 153 49 99 108 136 189 194 221 130 204 228 240 180 200 213 226 222 190 135 264 221 245 225 224 208 213 215 206
311 295 283 243 214 229 212 197 194 180 176 185 115 92 171 151 77 67 153 165 137 132 161 141 156 138 267 122 150 228 162 164 171 232 163 192 258 246 194 218 220 223 221 211 220 238 180 193 200 212 219 201 154 138
302 261 230 189 195 193 186 196 179 151 122 149 121 104 99 84 101 150 184 103 118 206 236 152 193 151 185 120 112 166 167 139 221 163 128 225 250 225 184 219 238 251 231 220 188 233 153 99 40 110 105 115 102 104
37 58 57 180 189 186 191 188 125 119 109 48 65 132 146 135 150 170 160 294 179 174 184 164 129 125 84 123 103 145 155 201 106 171 215 227 286 49 9 346 333 -0 17 68 72 80 93 91 62 75 104 92 100 95
35 41 62 50 107 177 148 126 126 117 90 100 130 130 151 140 175 171 178 185 233 125 142 113 117 145 174 91 141 143 194 106 180 199 228 274 356 332 334 337 334 337 12 81 78 89 100 100 85 70 84 103 118 116
48 38 31 32 48 70 116 129 114 70 95 106 106 141 161 173 46 355 67 65 261 166 121 79 49 113 140 165 184 125 166 200 195 221 251 302 322 330 338 349 340 350 15 78 72 77 78 81 89 84 51 78 91 102
32 42 20 20 27 44 59 55 34 55 54 72 56 81 53 63 332 18 323 137 215 155 90 75 133 148 188 176 178 199 168 208 268 300 284 325 324 321 317 338 344 351 10 65 77 88 92 81 88 95 62 48 79 109
53 19 10 23 34 32 29 62 55 42 54 56 28 30 30 62 156 165 151 68 334 107 129 121 165 185 84 156 180 23 107 84 2 341 315 313 336 334 335 349 14 18 40 41 66 69 87 103 115 109 94 45 61 58
55 323 23 16 25 34 26 24 70 56 60 15 41 344 46 109 30 14 8 5 346 95 90 134 104 90 122 144 87 57 31 339 37 12 357 349 354 355 24 10 20 61 59 48 59 67 87 100 92 91 110 116 107 90
115 55 32 26 41 79 63 17 9 85 59 57 67 48 52 80 46 8 323 343 22 335 71 36 102 60 64 36 7 12 19 10 336 327 320 321 349 7 41 52 39 50 57 54 64 70 67 54 79 81 79 123 105 85
65 43 36 35 36 65 58 8 8 78 76 69 30 44 57 38 346 9 30 15 34 36 40 39 46 31 356 360 348 308 307 325 307 315 308 86 20 36 42 44 58 73 73 57 69 95 94 83 63 78 75 88 106 237
37 10 23 50 48 55 82 17 46 58 88 71 358 33 57 24 25 21 25 358 58 35 57 33 19 315 316 295 322 299 304 328 289 240 290 313 60 56 83 91 90 86 90 53 76 71 70 80 90 94 84 273 244 245
11 30 51 22 75 64 71 20 105 137 66 105 60 34 43 46 30 20 6 46 54 29 8 336 323 317 320 334 328 309 296 301 281 283 284 347 37 70 85 65 16 62 74 80 70 93 70 86 107 161 197 267 270 266
29 30 52 15 77 45 19 302 69 16 75 42 51 61 33 47 31 74 71 62 89 41 298 296 296 287 266 297 319 341 323 343 3 3 3 26 55 55 71 47 19 71 64 59 76 90 154 321 249 231 252 286 356 339
33 45 31 41 20 59 2 37 32 58 58 43 55 70 28 22 349 60 72 51 348 342 352 345 335 340 3 6 8 341 345 315 343 22 1 28 67 40 29 59 51 58 70 103 91 86 261 271 265 250 274 2 320 277
67 6 15 11 10 23 36 27 16 43 62 19 77 51 8 340 71 57 63 5 341 344 350 344 345 358 7 309 319 332 325 2 3 37 7 349 338 188 43 46 40 8 128 51 12 354 316 308 293 292 273 250 270 291
67 355 37 352 1 35 354 51 31 22 23 62 36 324 22 66 64 57 39 325 311 312 338 340 336 334 1 4 319 344 340 344 310 43 20 2 13 28 30 29 7 17 39 85 129 314 300 276 259 260 268 270 269 275
50 352 356 87 336 307 47 42 42 52 51 29 345 3 39 64 61 20 331 8 308 302 306 299 267 291 316 321 321 313 292 268 238 174 341 8 42 52 61 40 339 283 269 227 214 225 257 276 275 270 271 276 248 242
66 30 19 340 36 3 52 46 35 27 3 344 300 36 69 49 50 300 314 325 323 310 307 23 129 265 326 337 360 5 1 20 78 112 118 126 164 224 17 313 302 344 337 302 285 262 251 259 268 275 273 273 278 255
33 344 302 28 45 47 41 27 20 2 335 304 49 70 84 62 291 294 305 322 322 34 42 34 24 20 28 18 25 24 25 24 36 34 19 346 344 337 355 338 330 326 324 330 330 334 321 300 294 271 274 271 280 284
355 3 29 47 47 39 347 333 327 312 277 290 293 104 93 81 40 27 31 27 31 32 28 37 29 27 24 14 360 1 355 37 48 39 338 328 315 312 316 313 310 306 306 309 323 321 331 0 338 348 343 322 311 300
321 337 66 46 70 344 304 304 268 255 331 39 41 87 95 127 77 42 28 14 2 12 25 24 19 18 9 3 354 340 337 324 24 2 320 297 303 308 312 314 309 306 308 322 314 308 299 305 287 297 297 293 289 289
359 37 85 83 36 292 299 14 358 60 356 37 15 51 67 74 72 43 8 16 22 24 19 18 2 345 333 321 294 282 332 331 333 323 316 316 300 302 309 311 306 320 341 307 300 289 289 287 288 285 285 281 278 277
13 21 40 74 60 41 10 346 95 92 34 48 27 29 57 86 101 129 125 29 34 352 5 332 322 314 315 312 311 292 310 295 309 325 321 322 322 323 317 304 357 308 302 301 297 289 287 286 285 283 282 279 281 284